Tracking 35331 objects as of 17-Sep-2026
HD Live streaming from Space Station
objects crossing your sky now

STARLINK-38053

Track STARLINK-38053 now!
10-day predictions
STARLINK-38053 is classified as:


NORAD ID: 100230
Int'l Code: 2026-177T
Launch date: August 4, 2026
Source: United States (US)
Launch site: AIR FORCE WESTERN TEST RANGE (AFWTR)
Your satellite tracking list
Your tracking list is empty




NASA's NSSDC Master Catalog

Two Line Element Set (TLE):
1 A0230U 26177T   26259.11082944  .00065571  00000-0  11949-2 0  9991
2 A0230  97.2822 309.9053 0001229 105.9933 254.1454 15.49247135  7755
Source of the keplerian elements: AFSPC